DMSP 5D-2 F11 DEB, 29074

Orbit data source: Space-Track

DMSP 5D-2 F11 DEB, 29074 is space debris in SSO originally from a launch on Thu, 28 Nov 1991 UTC launched from the Air Force Western Test Range (AFWTR). Debris objects in space refer to the collection of defunct objects orbiting the Earth. Examples of debris include non-operational satellites, rocket bodies, and fragments generated from explosions, collisions, or faulty payload assembly.

Loading next visibility...
Identifier
29074, 1991-082BV
Orbit
SSO
Country
Flag of USUS
Related business
Manufacturer
Unknown
Mission
Spacecraft
Bus & Motor
Unknown
Mass
Unknown
Launch date (UTC)
1991-11-28 (34 years ago)
Launch vehicle
Unknown
Launch site
Air Force Western Test Range (AFWTR)
Object type
Payload
Rocket body
Debris
Shape & HBR
Unknown shape, 0.1 m
Radar Cross Section
Small (<0.1 m²)

Expand to show TLE details & history
Last TLE update: 2 days ago

TLE from 2 days ago
0 DMSP 5D-2 F11 DEB
1 29074U 91082BV  25348.06935586  .00009998  00000-0  22986-2 0  9990
2 29074  98.5812  69.4087 0006004  10.1933 349.9384 14.55617387103638
Epoch: 2025-12-14T01:39Z
TLE epoch observation values (Epoch: 2025-12-14T01:39:52.346Z)
Latitude
-0.00003°
Longitude
-38.54697°
Altitude
706.138 km
Speed
7.505 km/s
True Right ascension
04h 37m 38s
True Declination
0° 00' 00"
Sunlit
Object was in full shadow at epoch
Visualization orbit readout
Latitude
Unknown
Longitude
Unknown
Altitude
Unknown
Speed
Unknown
Apparent Right ascension
Unknown
Apparent Declination
Unknown
Sunlit
N/A
Visualization observer readout
Local Sidereal Time
13:18:52
Azimuth
Unknown
Elevation
Unknown
Doppler factor
Unknown
Orbital elements
Apogee altitude
708.718 km
Perigee altitude
700.213 km
Semi-major axis
7,082.602 km
Eccentricity
0.0006
Inclination
98.5812°
RAAN
69.4087°
Arg. of periapsis
10.1933°
True anomaly
349.92637°
Mean anomaly
349.9384°
Eccentric anomaly
349.93239°
Mean motion
3.64128 °/min
Orbital period
98.87 mins
BSTAR
0.0022986
Loading maneuver chart data...
Computing Atmospheric mass density...

Documentation

Showing up to 5 results
|